This demonstration page uses our WeatherBlox Daily Observations layout. Learn more.

Left ArrowRight Arrow

40.92501, -98.34201

Hourly Observations for February 5, 2022

Temp ( °F °C ) Dew Point ( °F °C ) Humidity (%) Winds ( mph kmh ) Pressure ( in mb ) Visibility ( mi km ) Precip ( " mm )
12:53 am 00:53 Clear 19 -7.2 2 -16.7 47 47 S 17 28 30.40 1030 10 16 0.00 0.00
1:53 am 01:53 Clear 19 -7.2 3 -16.1 49 49 S 17 28 30.35 1028 10 16 0.00 0.00
2:53 am 02:53 Clear 20 -6.7 4 -15.6 50 50 S 18 30 30.31 1026 10 16 0.00 0.00
3:53 am 03:53 Clear 19 -7.2 6 -14.4 57 57 S 15 24 30.27 1025 10 16 0.00 0.00
4:53 am 04:53 Clear 20 -6.7 8 -13.3 60 60 S 13 20 30.24 1024 10 16 0.00 0.00
5:53 am 05:53 Clear 21 -6.1 10 -12.2 62 62 S 12 19 30.21 1023 10 16 0.00 0.00
6:53 am 06:53 Clear 21 -6.1 11 -11.7 65 65 S 12 19 30.19 1023 10 16 0.00 0.00
7:53 am 07:53 Sunny 22 -5.6 11 -11.7 63 63 SSW 14 22 30.17 1022 10 16 0.00 0.00
8:53 am 08:53 Sunny 26 -3.3 12 -11.1 55 55 S 13 20 30.15 1021 10 16 0.00 0.00
9:53 am 09:53 Sunny 34 1.1 14 -10 44 44 SW 14 22 30.13 1020 10 16 0.00 0.00
10:53 am 10:53 Sunny 41 5 16 -8.9 36 36 SW 13 20 30.10 1019 10 16 0.00 0.00
11:53 am 11:53 Sunny 47 8.3 16 -8.9 29 29 WSW 14 22 30.07 1018 10 16 0.00 0.00
12:53 pm 12:53 Sunny 52 11.1 17 -8.3 25 25 SW 14 22 30.03 1017 10 16 0.00 0.00
1:53 pm 13:53 Sunny 54 12.2 17 -8.3 23 23 SSW 8 13 30.00 1016 10 16 0.00 0.00
2:53 pm 14:53 Sunny 57 13.9 17 -8.3 21 21 SSW 8 13 29.97 1015 10 16 0.00 0.00
3:53 pm 15:53 Sunny 56 13.3 17 -8.3 22 22 SW 5 7 29.97 1015 10 16 0.00 0.00
4:53 pm 16:53 Sunny 53 11.7 16 -8.9 23 23 S 3 6 29.98 1015 10 16 0.00 0.00
5:53 pm 17:53 Sunny 48 8.9 16 -8.9 28 28 S 3 6 29.99 1016 10 16 0.00 0.00
6:53 pm 18:53 Clear 42 5.6 16 -8.9 35 35 S 7 11 30.01 1016 10 16 0.00 0.00
7:53 pm 19:53 Clear 35 1.7 15 -9.4 44 44 Calm 30.03 1017 10 16 0.00 0.00
8:53 pm 20:53 Clear 29 -1.7 13 -10.6 51 51 Calm 30.04 1017 10 16 0.00 0.00
9:53 pm 21:53 Mostly Clear 28 -2.2 12 -11.1 51 51 Calm 30.04 1017 10 16 0.00 0.00
10:53 pm 22:53 Mostly Cloudy 30 -1.1 15 -9.4 54 54 NNW 3 6 30.04 1017 10 16 0.00 0.00
11:53 pm 23:53 Clear 25 -3.9 13 -10.6 60 60 Calm 30.06 1018 10 16 0.00 0.00

Powered by AerisWeather